sat.trackr.live / text

‹ back to catalog

ONEWEB-0114

NORAD 47262 · 2020-100E

PAYLOAD ACTIVE UNKNOWN

§ Identity

Operator
Country
UK
Launch date
2020-12-18
Launch site
VOSTO
Launch vehicle
Mass (kg)
RCS (m²)

Purposes: comms

External: N2YO · Heavens-Above · Gunter

§ Orbital elements

Epoch: 2026-09-20T03:29:56.668128Z

Period
109.72 min
Inclination
87.8978°
Eccentricity
0.0001582
Mean motion
13.12441781 rev/d
Perigee alt
1,212.5 km
Apogee alt
1,214.9 km
Semi-major
7,591.9 km
B*
-1.1114e-3
RAAN
331.8127°
Arg perigee
98.3969°
Mean anomaly
261.7338°
Rev number
27,697

§ Raw data

ONEWEB-01141 47262U 20100E   26263.14579477 -.00000387  00000+0 -11114-2 0  99962 47262  87.8978 331.8127 0001582  98.3969 261.7338 13.12441781276978

JSON: /api/v1/satellites/47262 · /tle

For live sub-satellite position, see the globe view (requires WebGL).

§ Visibility from observer

Set your observer location to see the next 7 days of passes ≥ 10°. The values pass through the URL so the page stays shareable.

No JS? Fill the form by hand. The geolocation button needs JavaScript.